CZ-3B R/B

Last updated on Mon Dec 15 2025 00:02:10 GMT+0000 (Coordinated Universal Time)

1 66587U 25269B 25346.78292580 .00067576 10944-5 96663-3 0 9994 2 66587 51.3470 169.6347 7518951 228.7177 37.1847 2.03336189 454
UTC large
Height (km)
Speed (km/s)
/
Latitude / Longitude
Inclination (degrees)
Orbital Period (minutes)
Azimuth
Elevation
Range (km)
Doppler Factor

Next 0 passes for location: London (51.5072 / 0.1276)

Sorry there are no passes over London.